Location: *
(46.1866°S, 178.5290°W)
Time: 15:18:23
(UTC+00:00)

MOS 1-B Rocket - Pass Details

Date: 19 May 2021
Orbit: 890 x 1606 km, 99.0° (Epoch: 21 June)

Event Time Altitude Azimuth Distance (km) Brightness Sun altitude
Rises 06:02:44 0° 34° (NE) 3,510 6.7 -16.2°
Reaches altitude 10° 06:05:05 10° 39° (NE) 2,601 6.0 -16.6°
Maximum altitude 06:10:36 51° 113° (ESE) 1,208 4.1 -17.5°
Drops below altitude 10° 06:16:47 10° 187° (S) 2,914 6.5 -18.6°
Sets 06:19:33 0° 191° (S) 3,971 7.2 -19.1°
